This is the latest recevied weather packets stored in our database for station/object PY2VE-13. If no packets are shown the sender has not sent any weather packets the latest 10 day(s).
| Time | Temp. | Humidity | Pressure | Rain* | Wind** | Luminosity | Snow |
|---|---|---|---|---|---|---|---|
| 1777284211 | 25° C | 52% | 1018.7 hPa | - | - | - | - |
| 1777283311 | 25° C | 52% | 1018.5 hPa | - | - | - | - |
| 1777282411 | 25.56° C | 51% | 1018.1 hPa | - | - | - | - |
| 1777281511 | 25.56° C | 51% | 1018 hPa | - | - | - | - |
| 1777280611 | 25.56° C | 51% | 1017.8 hPa | - | - | - | - |
| 1777279711 | 25° C | 51% | 1017.8 hPa | - | - | - | - |
| 1777278811 | 25° C | 52% | 1017.6 hPa | - | - | - | - |
| 1777277911 | 25° C | 52% | 1017.3 hPa | - | - | - | - |
| 1777277011 | 25° C | 52% | 1017.1 hPa | - | - | - | - |
| 1777276111 | 25.56° C | 51% | 1016.7 hPa | - | - | - | - |
| 1777275211 | 25.56° C | 50% | 1016.6 hPa | - | - | - | - |
| 1777274311 | 26.11° C | 49% | 1016.2 hPa | - | - | - | - |
| 1777273411 | 26.11° C | 49% | 1016.2 hPa | - | - | - | - |
| 1777272511 | 26.11° C | 49% | 1016.4 hPa | - | - | - | - |
| 1777271610 | 26.67° C | 48% | 1016.3 hPa | - | - | - | - |
| 1777270711 | 26.11° C | 48% | 1016.3 hPa | - | - | - | - |
| 1777269810 | 26.11° C | 48% | 1016.3 hPa | - | - | - | - |
| 1777268910 | 26.11° C | 48% | 1016.3 hPa | - | - | - | - |
| 1777268010 | 27.22° C | 47% | 1016.2 hPa | - | - | - | - |
| 1777267110 | 26.67° C | 47% | 1016.3 hPa | - | - | - | - |
| 1777266214 | 26.67° C | 48% | 1016.4 hPa | - | - | - | - |
| 1777265311 | 26.67° C | 47% | 1016.4 hPa | - | - | - | - |
| 1777264410 | 26.67° C | 46% | 1016.4 hPa | - | - | - | - |
| 1777263510 | 27.22° C | 46% | 1016.5 hPa | - | - | - | - |
| 1777262610 | 27.78° C | 45% | 1016.5 hPa | - | - | - | - |
* Rain since midnight (hover to see other rain measurements)
** Current wind speed in m/s (hover to see current wind gust speed)